Weather History for Beach, ND

Change the Weather History Date:

Thursday, November 1, 2012

  Actual Average (KGDV) Record (KGDV)
Temperature  
Mean Temperature 34 °F -  
Max Temperature 37 °F 45 °F 73 °F (2008)
Min Temperature 32 °F 24 °F 8 °F (2002)
Degree Days  
Heating Degree Days 30    
Moisture  
Dew Point 33 °F    
Average Humidity 98    
Maximum Humidity 100    
Minimum Humidity 80    
Precipitation  
Precipitation 0.00 in - - ()
Sea Level Pressure  
Sea Level Pressure 29.94 in    
Wind  
Wind Speed 17 mph (SE)    
Max Wind Speed 26 mph    
Max Gust Speed 34 mph    
Visibility 3 miles    
Events Fog    
Averages and records for this station are not official NWS values.
T = Trace of Precipitation, MM = Missing Value Source: NWS Daily Summary

Daily Weather History Graph

Daily Weather History Graph

Search for Another Location

Airport:

Trip Planner

Search our weather history database for the weather conditions in past years. The results will help you decide how hot, cold, wet, or windy it might be!

Date:

Astronomy

Nov. 01, 2012 Rise Set
Actual Time 7:39 AM MDT 5:39 PM MDT
Civil Twilight 7:07 AM MDT 6:10 PM MDT
Nautical Twilight 6:31 AM MDT 6:46 PM MDT
Astronomical Twilight 5:56 AM MDT 7:22 PM MDT
Moon 7:29 PM MDT (11/1) 10:22 AM MDT (11/1)
Length of Visible Light 11h 03m
Length of Day
9h 59m
Waning Gibbous, 92% of the Moon is Illuminated
Nov 1
Waning Gibbous
Nov 6
Last Quarter
Nov 13
New
Nov 20
First Quarter
Nov 28
Full

Hourly Weather History & Observations

Time (MDT) Temp. Windchill Dew Point Humidity Pressure Visibility Wind Dir Wind Speed Gust Speed Precip Events Conditions
12:15 AM 32.0 °F 23.0 °F 32.0 °F 100% 30.07 in 0.2 mi ESE 11.5 mph - N/A Fog Fog
12:35 AM 32.0 °F 21.6 °F 32.0 °F 100% 30.07 in 0.2 mi ESE 15.0 mph - N/A Fog Fog
12:55 AM 32.0 °F 22.5 °F 32.0 °F 100% 30.07 in 0.2 mi ESE 12.7 mph - N/A Fog Fog
1:15 AM 32.0 °F 22.5 °F 32.0 °F 100% 30.06 in 0.2 mi ESE 12.7 mph - N/A Fog Fog
1:35 AM 32.0 °F 21.6 °F 32.0 °F 100% 30.05 in 0.2 mi ESE 15.0 mph - N/A Fog Fog
1:55 AM 32.0 °F 22.5 °F 32.0 °F 100% 30.05 in 0.2 mi SE 12.7 mph 19.6 mph N/A Fog Fog
2:15 AM 32.0 °F 22.5 °F 32.0 °F 100% 30.03 in 0.2 mi SE 12.7 mph 18.4 mph N/A Fog Fog
2:35 AM 32.0 °F 21.2 °F 32.0 °F 100% 30.04 in 0.2 mi SE 16.1 mph 21.9 mph N/A   Overcast
2:55 AM 32.0 °F 20.8 °F 32.0 °F 100% 30.04 in 0.2 mi SE 17.3 mph 21.9 mph N/A Fog Fog
3:15 AM 32.0 °F 21.6 °F 32.0 °F 100% 30.02 in 0.5 mi SE 15.0 mph 24.2 mph N/A Fog Fog
3:35 AM 32.0 °F 22.1 °F 32.0 °F 100% 30.02 in 0.5 mi ESE 13.8 mph 21.9 mph N/A Fog Fog
3:55 AM 32.0 °F 21.2 °F 32.0 °F 100% 30.01 in 0.2 mi SE 16.1 mph 20.7 mph N/A   Overcast
4:15 AM 32.0 °F 21.2 °F 32.0 °F 100% 30.00 in 0.2 mi SE 16.1 mph - N/A Fog Fog
4:35 AM 32.0 °F 20.8 °F 32.0 °F 100% 30.00 in 0.2 mi SE 17.3 mph 25.3 mph N/A   Overcast
4:55 AM 32.0 °F 20.5 °F 32.0 °F 100% 29.99 in 0.5 mi SE 18.4 mph 24.2 mph N/A Fog Fog
5:15 AM 32.0 °F 20.8 °F 32.0 °F 100% 29.99 in 0.2 mi SE 17.3 mph 24.2 mph N/A   Overcast
5:35 AM 32.0 °F 19.5 °F 32.0 °F 100% 29.99 in 0.5 mi SE 21.9 mph 26.5 mph N/A Fog Fog
5:55 AM 32.0 °F 21.2 °F 32.0 °F 100% 29.99 in 0.2 mi SE 16.1 mph 19.6 mph N/A Fog Fog
6:15 AM 32.0 °F 19.8 °F 32.0 °F 100% 29.98 in 0.2 mi SE 20.7 mph 26.5 mph N/A   Overcast
6:35 AM 32.0 °F 21.2 °F 32.0 °F 100% 29.98 in 0.5 mi SE 16.1 mph 26.5 mph N/A   Overcast
6:55 AM 32.0 °F 20.8 °F 32.0 °F 100% 29.97 in 0.5 mi SE 17.3 mph 25.3 mph N/A   Overcast
7:15 AM 32.0 °F 20.8 °F 32.0 °F 100% 29.96 in 0.5 mi SE 17.3 mph 25.3 mph N/A Fog Fog
7:35 AM 32.0 °F 19.2 °F 32.0 °F 100% 29.96 in 0.8 mi SE 23.0 mph 27.6 mph N/A   Overcast
7:55 AM 32.0 °F 18.9 °F 32.0 °F 100% 29.95 in 0.2 mi SE 24.2 mph 31.1 mph N/A   Overcast
8:15 AM 32.0 °F 19.5 °F 32.0 °F 100% 29.94 in 0.2 mi SE 21.9 mph 32.2 mph N/A   Overcast
8:35 AM 32.0 °F 19.8 °F 32.0 °F 100% 29.94 in 0.2 mi SE 20.7 mph 31.1 mph N/A   Overcast
8:55 AM 32.0 °F 19.5 °F 32.0 °F 100% 29.94 in 0.2 mi SE 21.9 mph 31.1 mph N/A   Overcast
9:15 AM 32.0 °F 18.4 °F 32.0 °F 100% 29.93 in 0.2 mi SE 26.5 mph 31.1 mph N/A   Overcast
9:35 AM 32.0 °F 19.8 °F 32.0 °F 100% 29.94 in 0.5 mi SE 20.7 mph 25.3 mph N/A   Overcast
9:55 AM 32.0 °F 20.5 °F 32.0 °F 100% 29.94 in 0.2 mi SE 18.4 mph 28.8 mph N/A   Overcast
10:15 AM 32.0 °F 20.1 °F 32.0 °F 100% 29.94 in 0.2 mi SE 19.6 mph 26.5 mph N/A   Overcast
10:35 AM 32.0 °F 20.5 °F 32.0 °F 100% 29.94 in 0.5 mi SE 18.4 mph 27.6 mph N/A Fog Fog
10:55 AM 32.0 °F 19.8 °F 32.0 °F 100% 29.94 in 0.8 mi SE 20.7 mph 31.1 mph N/A   Overcast
11:15 AM 33.8 °F 21.0 °F 33.8 °F 100% 29.92 in 1.2 mi SE 25.3 mph 29.9 mph N/A   Overcast
11:35 AM 33.8 °F 21.6 °F 33.8 °F 100% 29.92 in 1.5 mi SE 23.0 mph 33.4 mph N/A   Overcast
12:15 PM 35.6 °F 24.2 °F 35.6 °F 100% 29.91 in 5.0 mi SE 21.9 mph 28.8 mph N/A   Overcast
12:35 PM 35.6 °F 24.5 °F 35.6 °F 100% 29.90 in 3.0 mi SE 20.7 mph 29.9 mph N/A   Overcast
12:55 PM 35.6 °F 24.2 °F 35.6 °F 100% 29.88 in 5.0 mi SE 21.9 mph 27.6 mph N/A   Overcast
1:15 PM 35.6 °F 25.2 °F 35.6 °F 100% 29.88 in 10.0 mi SE 18.4 mph 33.4 mph N/A   Overcast
1:35 PM 37.4 °F 25.6 °F 37.4 °F 100% 29.87 in 7.0 mi SE 26.5 mph 34.5 mph N/A   Overcast
1:55 PM 37.4 °F 27.2 °F 37.4 °F 100% 29.87 in 9.0 mi SE 19.6 mph 27.6 mph N/A   Overcast
2:15 PM 37.4 °F 26.4 °F 37.4 °F 100% 29.87 in 10.0 mi SE 23.0 mph 29.9 mph N/A   Overcast
3:15 PM 37.4 °F 26.1 °F 37.4 °F 100% 29.86 in 5.0 mi SE 24.2 mph 27.6 mph N/A   Overcast
3:55 PM 37.4 °F 27.2 °F 37.4 °F 100% 29.86 in 4.0 mi SE 19.6 mph 26.5 mph N/A   Overcast
4:15 PM 35.6 °F 25.2 °F 35.6 °F 100% 29.87 in 2.0 mi SE 18.4 mph 24.2 mph N/A   Overcast
4:35 PM 35.6 °F 25.2 °F 35.6 °F 100% 29.87 in 2.0 mi SE 18.4 mph 26.5 mph N/A   Overcast
4:55 PM 35.6 °F 25.5 °F 35.6 °F 100% 29.87 in 1.5 mi ESE 17.3 mph 21.9 mph N/A   Overcast
5:15 PM 35.6 °F 25.5 °F 35.6 °F 100% 29.86 in 1.8 mi SE 17.3 mph 26.5 mph N/A   Overcast
5:35 PM 35.6 °F 25.5 °F 35.6 °F 100% 29.87 in 1.5 mi SE 17.3 mph 25.3 mph N/A   Overcast
5:55 PM 35.6 °F 26.2 °F 35.6 °F 100% 29.88 in 2.0 mi SE 15.0 mph 19.6 mph N/A   Overcast
6:15 PM 35.6 °F 25.5 °F 35.6 °F 100% 29.88 in 3.0 mi SE 17.3 mph 24.2 mph N/A   Overcast
6:35 PM 35.6 °F 25.9 °F 35.6 °F 100% 29.88 in 3.0 mi SE 16.1 mph 23.0 mph N/A   Overcast
6:55 PM 35.6 °F 25.9 °F 35.6 °F 100% 29.88 in 2.0 mi SE 16.1 mph 23.0 mph N/A   Overcast
7:15 PM 35.6 °F 25.9 °F 35.6 °F 100% 29.88 in 3.0 mi SE 16.1 mph 25.3 mph N/A   Overcast
7:35 PM 35.6 °F 25.5 °F 35.6 °F 100% 29.89 in 4.0 mi SE 17.3 mph 26.5 mph N/A   Overcast
7:55 PM 35.6 °F 25.9 °F 35.6 °F 100% 29.88 in 5.0 mi SE 16.1 mph 25.3 mph N/A   Overcast
8:15 PM 35.6 °F 26.6 °F 35.6 °F 100% 29.89 in 10.0 mi SE 13.8 mph 23.0 mph N/A   Overcast
8:35 PM 33.8 °F 24.3 °F 33.8 °F 100% 29.89 in 10.0 mi SE 13.8 mph 23.0 mph N/A   Overcast
8:55 PM 33.8 °F 23.9 °F 32.0 °F 93% 29.89 in 10.0 mi ESE 15.0 mph 21.9 mph N/A   Overcast
9:15 PM 33.8 °F 23.2 °F 32.0 °F 93% 29.89 in 10.0 mi ESE 17.3 mph - N/A   Overcast
9:35 PM 32.0 °F 21.2 °F 32.0 °F 100% 29.89 in 10.0 mi SE 16.1 mph 21.9 mph N/A   Overcast
9:55 PM 32.0 °F 21.2 °F 30.2 °F 93% 29.89 in 10.0 mi SE 16.1 mph 21.9 mph N/A   Overcast
10:15 PM 32.0 °F 21.6 °F 28.4 °F 87% 29.89 in 10.0 mi SE 15.0 mph 21.9 mph N/A   Overcast
10:35 PM 32.0 °F 22.5 °F 28.4 °F 87% 29.90 in 10.0 mi SE 12.7 mph 21.9 mph N/A   Overcast
10:55 PM 32.0 °F 21.6 °F 26.6 °F 80% 29.90 in 10.0 mi SE 15.0 mph 21.9 mph N/A   Overcast
11:15 PM 32.0 °F 22.1 °F 26.6 °F 80% 29.91 in 10.0 mi SE 13.8 mph - N/A   Overcast
11:35 PM 32.0 °F 23.0 °F 26.6 °F 80% 29.91 in 10.0 mi SE 11.5 mph - N/A   Overcast
11:55 PM 32.0 °F 22.5 °F 26.6 °F 80% 29.91 in 10.0 mi SE 12.7 mph - N/A   Overcast